[[{"header":{"parameterUnit":"m.s-1","parameterCategory":1,"la1":30.2991,"la2":30.254,"lo1":-89.0895,"lo2":-89.0444,"dy":0.0017,"dx":0.0017,"nx":28,"ny":28,"refTime":"2025-07-16T21:00:00:Z","depth":0,"parameterNumber":2,"parameterNumberName":"U-component_of_WINDS"},"data":[0,0,0,0,0,0,0,0,0,0,0,0,0,0,0,0,0,0,0,0,0,0,0,0,0,0,0,0,0,0,0,0,0,0,0,0,0,0,0,0,0,0,0,0,0,0,0,0,0,0,0,0,0,0,0,0,0,0,1.9984,1.9982,0,1.98,1.9798,1.9796,1.9645,1.9643,1.9642,1.964,1.9446,1.9443,1.9439,0,0,0,0,0,0,0,0,0,0,0,0,0,2.0198,2.0195,1.9984,1.9982,1.998,1.9801,1.9798,1.9796,1.9645,1.9643,1.9642,1.964,1.9448,1.9443,1.9439,0,0,0,0,0,0,0,0,0,0,0,0,0,2.0069,2.0194,1.9985,1.9883,1.9872,1.9801,1.9798,1.9795,1.9646,1.9643,1.9641,1.9639,1.9449,1.9444,1.9438,1.9451,0,0,1.9421,1.9419,0,0,0,0,0,0,0,0,2.0076,2.0061,1.99,1.989,1.9878,1.9743,1.9802,1.9679,1.9646,1.9732,1.964,1.9638,1.9547,1.9533,1.9503,1.9442,1.9434,1.9421,1.9417,1.9415,1.9413,0,0,0,0,0,0,0,2.0085,2.0068,1.9911,1.9898,1.9884,1.9844,1.9824,1.9778,1.9654,1.9724,1.9713,1.9693,1.954,1.9509,1.9498,1.9431,1.9421,1.9416,1.9412,1.941,1.9367,1.9369,0,0,0,0,0,0,2.0111,2.0076,1.9917,1.9906,1.9973,1.9843,1.9819,1.9789,1.9654,1.9632,1.9695,1.9687,1.952,1.9504,1.949,1.9494,1.9415,1.941,1.9407,1.9365,1.9367,1.937,0,0,0,0,0,0,2.0116,2.0098,1.9924,1.9988,1.9963,1.9841,1.9808,1.9786,1.9755,1.9633,1.9609,1.9687,1.9517,1.9498,1.9462,1.9485,1.9407,1.9402,1.9362,1.9366,1.9369,1.9504,0,0,0,0,0,0,2.0123,2.0101,2.0106,1.9989,1.996,1.9901,1.981,1.9784,1.9747,1.9734,1.9619,1.9598,1.9514,1.9471,1.9456,1.9476,1.9398,1.9359,1.9364,1.9368,1.9497,1.9511,1.9524,0,0,0,0,0,2.0131,2.0151,2.0107,2.0089,1.9965,1.9903,1.9886,1.9791,1.975,1.9752,1.9674,1.9601,1.9486,1.9468,1.945,1.9469,1.9357,1.9363,1.9367,1.9491,1.9509,1.9524,0,0,0,0,0,0,2.0272,2.0134,2.0084,2.0067,1.9998,1.9878,1.9879,1.9814,1.9753,1.9744,1.9627,1.9602,1.9577,1.952,1.9503,1.9473,1.9412,1.9414,1.9512,1.9528,1.9541,1.9554,1.9393,0,0,0,0,0,2.0302,2.0265,2.0146,2.0142,2.011,2.0001,1.9971,1.9904,1.9827,1.9796,1.9714,1.9641,1.9587,1.9555,1.9499,1.9488,1.9459,1.9492,1.9506,1.9518,1.952,1.9507,1.9519,1.9386,1.9386,1.9386,0,0,2.0361,2.0281,2.0265,2.0168,2.0107,2.007,1.9977,1.9942,1.9912,1.979,1.975,1.9688,1.9598,1.9574,1.9559,1.9525,1.955,1.9524,1.9534,1.953,1.9513,1.9526,1.9537,1.9389,1.9389,1.9388,0,0,2.045,2.0388,2.0377,2.0318,2.0227,2.0154,2.0152,2.0041,1.9995,1.9954,1.9861,1.9823,1.9734,1.9673,1.963,1.9696,1.9626,1.9681,1.9752,1.9741,1.9751,1.976,1.978,1.979,1.9684,1.9685,1.9685,0,2.0535,2.0478,2.0379,2.0349,2.0308,2.0198,2.0184,2.0131,2.0026,1.9999,1.9963,1.9848,1.978,1.9739,1.9755,1.9725,1.9716,1.9693,1.9758,1.9766,1.9772,1.9791,1.9799,1.9692,1.9691,1.969,1.9689,0,2.0585,2.0547,2.0548,2.0451,2.0411,2.0389,2.0285,2.0255,2.0192,2.0122,2.008,1.9995,1.9919,1.9904,1.9841,1.9853,1.9835,1.9781,1.9716,1.9794,1.9809,1.9815,1.9702,1.9699,1.9697,1.9695,0,0,2.0757,2.0606,2.0608,2.0562,2.0454,2.042,2.0393,2.0321,2.0296,2.0227,2.0199,2.0127,2.0075,2.0027,1.9956,1.9947,2.0001,1.9892,1.9888,1.9914,2.0006,2.0046,2.0056,1.9955,1.9956,1.9957,2.0012,0,2.0827,2.0774,2.0684,2.0658,2.062,2.0514,2.049,2.0419,2.0353,2.0309,2.0235,2.0184,2.0122,2.0091,2.0078,1.9998,2.0018,1.9993,1.9925,1.9924,1.9949,2.0064,2.0107,2.0163,2.0018,2.0019,2.002,0,2.0901,2.084,2.0812,2.0705,2.0685,2.0665,2.059,2.055,2.0467,2.0419,2.0366,2.0289,2.0251,2.0195,2.014,2.0125,2.0092,2.0048,2.0048,2.0036,1.9975,2.0053,2.0179,2.0187,2.0029,2.0028,2.0027,0,2.1026,2.0937,2.0907,2.0872,2.0747,2.0735,2.0682,2.0596,2.0558,2.0492,2.0465,2.0396,2.0357,2.0304,2.0209,2.0177,2.0164,2.01,2.012,2.0123,2.012,2.0121,2.0241,2.0104,2.0104,2.0103,2.0103,0,2.1112,2.1098,2.0962,2.0944,2.0924,2.082,2.0803,2.0739,2.0665,2.063,2.0535,2.0504,2.0382,2.0336,2.0262,2.0226,2.0209,2.0168,2.0148,2.0175,2.018,2.015,2.0142,2.0106,2.0105,2.0105,2.0104,0,2.1248,2.1156,2.1117,2.1003,2.0973,2.0964,2.0864,2.0841,2.077,2.0727,2.0711,2.0598,2.0539,2.044,2.0352,2.0302,2.0279,2.0247,2.0308,2.0295,2.0321,2.0319,2.0423,2.043,2.0292,2.0294,2.0295,0,2.1307,2.1294,2.1179,2.115,2.1101,2.1056,2.1017,2.0913,2.0876,2.078,2.0768,2.0702,2.0643,2.0554,2.0462,2.0393,2.0357,2.0398,2.0346,2.0373,2.0354,2.0355,2.0352,2.041,2.0412,2.0413,2.0415,0,2.1422,2.1378,2.1326,2.1259,2.1215,2.1156,2.1092,2.1073,2.0955,2.0917,2.0857,2.0812,2.0723,2.0657,2.0576,2.0518,2.0446,2.0433,2.0433,2.046,2.0495,2.0473,2.0338,2.043,2.0428,2.0427,2.0426,2.0426,2.1519,2.1502,2.1418,2.1363,2.1305,2.1247,2.122,2.1146,2.1094,2.1015,2.0956,2.09,2.0814,2.0698,2.0644,2.0596,2.0563,2.0565,2.0565,2.0566,2.0576,2.0505,2.0581,2.058,2.058,2.0579,2.0579,0,2.1627,2.1568,2.1519,2.1433,2.139,2.1329,2.1255,2.1221,2.1173,2.1101,2.1046,2.0975,2.0911,2.0815,2.0743,2.0723,2.0688,2.0707,2.0706,2.0693,2.061,2.0616,2.0736,2.0736,2.0736,2.0736,2.0736,2.0736,2.1678,2.1645,2.1591,2.1527,2.1466,2.1412,2.1374,2.132,2.1261,2.1188,2.1135,2.1074,2.099,2.0911,2.0849,2.0822,2.0799,2.0828,2.0791,2.0714,2.0699,2.0685,2.069,2.0824,2.0825,2.0877,2.0878,2.0878]},{"header":{"parameterUnit":"m.s-1","parameterCategory":1,"la1":30.2991,"la2":30.254,"lo1":-89.0895,"lo2":-89.0444,"dy":0.0017,"dx":0.0017,"nx":28,"ny":28,"refTime":"2025-07-16T21:00:00:Z","depth":0,"parameterNumber":3,"parameterNumberName":"V-component_of_WINDS"},"data":[0,0,0,0,0,0,0,0,0,0,0,0,0,0,0,0,0,0,0,0,0,0,0,0,0,0,0,0,0,0,0,0,0,0,0,0,0,0,0,0,0,0,0,0,0,0,0,0,0,0,0,0,0,0,0,0,0,0,3.5057,3.5061,0,3.5415,3.5419,3.5423,3.5529,3.5527,3.5525,3.5523,3.5899,3.591,3.5922,0,0,0,0,0,0,0,0,0,0,0,0,0,3.4475,3.4485,3.5057,3.5061,3.5066,3.5414,3.5419,3.5424,3.5529,3.5527,3.5524,3.5522,3.5895,3.5909,3.5923,0,0,0,0,0,0,0,0,0,0,0,0,0,3.477,3.4488,3.5056,3.516,3.5173,3.5413,3.5419,3.5426,3.5529,3.5527,3.5524,3.5521,3.589,3.5908,3.5925,3.6091,0,0,3.5979,3.5987,0,0,0,0,0,0,0,0,3.4753,3.4791,3.514,3.5153,3.5168,3.5424,3.5352,3.5649,3.553,3.5394,3.5523,3.552,3.5744,3.5773,3.5847,3.6109,3.6125,3.5981,3.5991,3.5999,3.6004,0,0,0,0,0,0,0,3.4732,3.4776,3.5199,3.5145,3.5162,3.5192,3.5231,3.5409,3.5581,3.5406,3.5414,3.5455,3.5751,3.583,3.5857,3.613,3.598,3.5996,3.6007,3.6014,3.6548,3.6552,0,0,0,0,0,0,3.4693,3.4758,3.5188,3.521,3.4949,3.5205,3.5248,3.5345,3.5579,3.5612,3.5457,3.5458,3.5801,3.5836,3.587,3.6081,3.5999,3.6015,3.6025,3.6545,3.6549,3.6553,0,0,0,0,0,0,3.468,3.473,3.5173,3.4987,3.5045,3.5218,3.5326,3.5354,3.5432,3.5618,3.565,3.5505,3.58,3.5845,3.6035,3.6095,3.6023,3.6039,3.6541,3.6546,3.6551,3.6502,0,0,0,0,0,0,3.4662,3.4725,3.4787,3.4987,3.5055,3.5329,3.5329,3.5363,3.5461,3.5467,3.5671,3.5703,3.5801,3.6008,3.6053,3.6118,3.6053,3.6536,3.6543,3.6549,3.6499,3.6505,3.651,0,0,0,0,0,3.4641,3.4761,3.4789,3.4841,3.5136,3.5332,3.5371,3.5479,3.5466,3.5532,3.5651,3.5696,3.6081,3.6027,3.6078,3.615,3.6533,3.6541,3.6549,3.6497,3.6504,3.651,0,0,0,0,0,0,3.4567,3.4789,3.4823,3.501,3.5151,3.5349,3.5435,3.5484,3.5634,3.5633,3.5764,3.581,3.599,3.609,3.6024,3.6324,3.6309,3.6328,3.6252,3.626,3.6266,3.6238,3.6068,0,0,0,0,0,3.4571,3.4708,3.4897,3.5044,3.5113,3.5261,3.5351,3.5422,3.5575,3.5636,3.5769,3.5918,3.6073,3.6172,3.6325,3.6514,3.6562,3.659,3.6595,3.6599,3.6613,3.6723,3.6737,3.658,3.658,3.658,0,0,3.4583,3.4722,3.4801,3.5032,3.515,3.5292,3.5311,3.5461,3.5569,3.566,3.5846,3.5949,3.6125,3.6314,3.6405,3.6403,3.6668,3.6609,3.661,3.6624,3.6732,3.6747,3.676,3.6585,3.6584,3.6583,0,0,3.4678,3.4796,3.4931,3.5048,3.5225,3.5323,3.5355,3.5547,3.5618,3.5806,3.5878,3.601,3.6274,3.6396,3.6492,3.6634,3.6682,3.6681,3.671,3.6815,3.6827,3.6839,3.6891,3.6907,3.6695,3.6695,3.6695,0,3.4672,3.4886,3.4996,3.5142,3.5242,3.5328,3.5468,3.5578,3.5796,3.5865,3.5859,3.6192,3.6316,3.6537,3.6571,3.6646,3.669,3.6658,3.6816,3.6829,3.6842,3.6892,3.6911,3.6693,3.6694,3.6694,3.6694,0,3.487,3.5017,3.5106,3.5311,3.5423,3.5565,3.5699,3.5799,3.5861,3.5961,3.6154,3.6306,3.6491,3.6549,3.6612,3.6779,3.6772,3.6789,3.6777,3.6853,3.6903,3.6923,3.6691,3.6692,3.6692,3.6693,0,0,3.4927,3.519,3.5221,3.5316,3.5517,3.5635,3.5783,3.5961,3.6045,3.6194,3.6322,3.6544,3.6561,3.667,3.6749,3.684,3.6944,3.6847,3.6853,3.686,3.714,3.7125,3.7146,3.6977,3.6981,3.6985,3.7125,0,3.5047,3.531,3.5414,3.5629,3.5768,3.5852,3.5981,3.612,3.6218,3.6354,3.6464,3.6618,3.6629,3.6695,3.679,3.6911,3.7002,3.6903,3.7101,3.7107,3.7054,3.7172,3.7157,3.7282,3.7145,3.7149,3.7151,0,3.5222,3.5369,3.5596,3.5781,3.5843,3.5957,3.6129,3.6256,3.6417,3.6483,3.6604,3.6677,3.6839,3.6816,3.7042,3.6972,3.706,3.7132,3.714,3.7163,3.7133,3.7198,3.7325,3.7343,3.7183,3.7181,3.7178,0,3.5241,3.5496,3.5665,3.5743,3.5963,3.6041,3.6137,3.6295,3.6396,3.6548,3.6615,3.6785,3.6879,3.701,3.7129,3.7101,3.7344,3.7331,3.7405,3.7402,3.7453,3.7448,3.7595,3.7509,3.7508,3.7508,3.7508,0,3.5365,3.5501,3.5676,3.578,3.5936,3.6056,3.6209,3.6311,3.6451,3.658,3.6665,3.6784,3.6932,3.7072,3.7166,3.734,3.7382,3.7441,3.7464,3.7433,3.7426,3.7493,3.7487,3.7513,3.7512,3.7511,3.751,0,3.5412,3.5534,3.5724,3.5916,3.5968,3.6074,3.6241,3.6347,3.6449,3.661,3.6655,3.6816,3.6985,3.7116,3.7336,3.74,3.7584,3.7609,3.7528,3.754,3.7607,3.7599,3.7802,3.7836,3.7726,3.7727,3.7727,0,3.5482,3.5588,3.5791,3.588,3.5974,3.6119,3.6222,3.6345,3.6449,3.6641,3.6725,3.6899,3.7044,3.7311,3.745,3.762,3.765,3.771,3.7677,3.7642,3.7652,3.7644,3.7656,3.7714,3.7715,3.7715,3.7715,0,3.5594,3.5649,3.5792,3.5956,3.6075,3.6211,3.635,3.642,3.6569,3.6682,3.6854,3.6966,3.719,3.7363,3.7547,3.7651,3.771,3.7725,3.7751,3.7721,3.7669,3.7699,3.7539,3.772,3.7719,3.7719,3.7719,3.7718,3.5656,3.5754,3.5912,3.6068,3.6184,3.6312,3.6421,3.6535,3.6679,3.6868,3.6934,3.7111,3.7273,3.7526,3.763,3.7774,3.7777,3.7814,3.7824,3.7832,3.7829,3.7645,3.7808,3.7808,3.7808,3.7808,3.7808,0,3.5773,3.5878,3.602,3.6209,3.6333,3.6374,3.653,3.6631,3.6785,3.6929,3.7069,3.7268,3.7436,3.7588,3.7765,3.785,3.7882,3.7892,3.7888,3.7911,3.7816,3.7775,3.7864,3.7864,3.7864,3.7864,3.7864,3.7864,3.5848,3.6016,3.609,3.6319,3.6425,3.6596,3.6682,3.6801,3.6917,3.7133,3.7271,3.7368,3.7517,3.7705,3.7862,3.7903,3.7965,3.7969,3.8016,3.7925,3.7917,3.791,3.7873,3.7981,3.7981,3.81,3.8101,3.8102]}]]